Le Mars, IA

1:48 PM CDT on August 16, 2017 (GMT -0500)
Le Mars Municipal

Weather History for KLRJ - April, 2014

Change the Weather History Date:

Thursday, April 24, 2014

  Actual Average Record
Temperature  
Mean Temperature 53 °F -  
Max Temperature 62 °F 67 °F 87 °F (2012)
Min Temperature 44 °F 38 °F 24 °F (2013)
Degree Days  
Heating Degree Days 12    
Growing Degree Days 3 (Base 50)    
Moisture  
Dew Point 45 °F    
Average Humidity 78    
Maximum Humidity 100    
Minimum Humidity 45    
Precipitation  
Precipitation 0.00 in - - ()
Sea Level Pressure  
Sea Level Pressure 29.71 in    
Wind  
Wind Speed 8 mph (NNE)    
Max Wind Speed 20 mph    
Max Gust Speed 28 mph    
Visibility 8 miles    
Events      
Averages and records for this station are not official NWS values.
T = Trace of Precipitation, MM = Missing Value Source: NWS Daily Summary

Daily Weather History Graph

Daily Weather History Graph

Search for Another Location

Airport or City:

Trip Planner

Search our weather history database for the weather conditions in past years. The results will help you decide how hot, cold, wet, or windy it might be!

Date:

Astronomy

Apr. 24, 2014 Rise Set
Actual Time 6:29 AM CDT 8:17 PM CDT
Civil Twilight 5:58 AM CDT 8:47 PM CDT
Nautical Twilight 5:22 AM CDT 9:24 PM CDT
Astronomical Twilight 4:42 AM CDT 10:04 PM CDT
Moon 3:48 AM CDT (4/24) 3:27 PM CDT (4/24)
Length of Visible Light 14h 48m
Length of Day
13h 48m
Waning Crescent, 24% of the Moon is Illuminated
Apr 24
Waning Crescent
Apr 29
New
May 6
First Quarter
May 14
Full
May 21
Last Quarter

Hourly Weather History & Observations

Time (CDT) Temp. Windchill Dew Point Humidity Pressure Visibility Wind Dir Wind Speed Gust Speed Precip Events Conditions
12:15 AM 50.0 °F - 48.2 °F 94% 29.65 in 10.0 mi ESE 13.8 mph 21.9 mph N/A   Unknown
12:35 AM 51.8 °F - 48.2 °F 88% 29.66 in 10.0 mi Variable 3.5 mph 15.0 mph N/A   Unknown
12:55 AM 51.8 °F - 48.2 °F 88% 29.66 in 10.0 mi SW 10.4 mph 20.7 mph N/A   Unknown
1:15 AM 53.6 °F - 48.2 °F 82% 29.66 in 10.0 mi South 12.7 mph 21.9 mph N/A   Unknown
1:35 AM 51.8 °F - 46.4 °F 82% 29.68 in 10.0 mi SSW 6.9 mph 15.0 mph N/A   Unknown
1:55 AM 51.8 °F - 46.4 °F 82% 29.67 in 7.0 mi South 11.5 mph - N/A   Unknown
2:15 AM 50.0 °F - 48.2 °F 94% 29.68 in 4.0 mi Calm Calm - N/A   Mist
2:35 AM 50.0 °F - 48.2 °F 94% 29.68 in 3.0 mi Calm Calm - N/A   Mist
2:55 AM 50.0 °F - 48.2 °F 94% 29.66 in 3.0 mi ESE 3.5 mph - N/A   Mist
3:15 AM 50.0 °F - 46.4 °F 87% 29.66 in 5.0 mi ESE 6.9 mph - N/A   Mist
3:35 AM 50.0 °F - 46.4 °F 87% 29.66 in 6.0 mi East 4.6 mph - N/A   Mist
3:55 AM 48.2 °F - 46.4 °F 93% 29.67 in 5.0 mi ENE 5.8 mph - N/A   Mist
4:15 AM 48.2 °F - 46.4 °F 93% 29.67 in 5.0 mi East 6.9 mph - N/A   Mist
4:35 AM 48.2 °F - 46.4 °F 93% 29.68 in 5.0 mi ENE 4.6 mph - N/A   Overcast
4:55 AM 48.2 °F - 46.4 °F 93% 29.67 in 5.0 mi East 8.1 mph - N/A   Overcast
5:15 AM 48.2 °F - 46.4 °F 93% 29.65 in 4.0 mi East 8.1 mph - N/A   Mist
5:35 AM 48.2 °F - 46.4 °F 93% 29.64 in 6.0 mi ENE 6.9 mph - N/A   Mist
5:55 AM 46.4 °F 43.5 °F 46.4 °F 100% 29.66 in 9.0 mi ENE 5.8 mph - N/A   Unknown
6:15 AM 46.4 °F 43.5 °F 44.6 °F 93% 29.66 in 10.0 mi ENE 5.8 mph - N/A   Unknown
6:35 AM 46.4 °F 44.3 °F 46.4 °F 100% 29.65 in 4.0 mi NE 4.6 mph - N/A   Mist
6:55 AM 46.4 °F - 46.4 °F 100% 29.67 in 3.0 mi Calm Calm - N/A   Mist
7:15 AM 46.4 °F - 46.4 °F 100% 29.66 in 4.0 mi Calm Calm - N/A   Mist
7:35 AM 46.4 °F 44.3 °F 46.4 °F 100% 29.67 in 4.0 mi ENE 4.6 mph - N/A   Mist
7:55 AM 46.4 °F 44.3 °F 44.6 °F 93% 29.69 in 2.5 mi East 4.6 mph - N/A   Mist
8:15 AM 46.4 °F - 44.6 °F 93% 29.69 in 9.0 mi Calm Calm - N/A   Unknown
8:35 AM 46.4 °F 45.2 °F 44.6 °F 93% 29.69 in 7.0 mi NE 3.5 mph - N/A   Unknown
8:55 AM 46.4 °F 43.5 °F 46.4 °F 100% 29.70 in 6.0 mi NW 5.8 mph - N/A   Mist
9:15 AM 46.4 °F 43.5 °F 46.4 °F 100% 29.69 in 5.0 mi NNW 5.8 mph - N/A   Mist
9:35 AM 46.4 °F 42.4 °F 46.4 °F 100% 29.69 in 3.0 mi North 8.1 mph - N/A   Mist
9:55 AM 48.2 °F - 46.4 °F 93% 29.69 in 6.0 mi NNW 8.1 mph - N/A   Mist
10:15 AM 50.0 °F - 48.2 °F 94% 29.69 in 6.0 mi NW 9.2 mph - N/A   Mist
10:35 AM 50.0 °F - 48.2 °F 94% 29.70 in 7.0 mi NW 12.7 mph - N/A   Unknown
10:55 AM 51.8 °F - 48.2 °F 88% 29.71 in 8.0 mi NNW 18.4 mph - N/A   Unknown
11:15 AM 51.8 °F - 48.2 °F 88% 29.71 in 9.0 mi NNW 19.6 mph - N/A   Unknown
11:35 AM 53.6 °F - 50.0 °F 88% 29.71 in 9.0 mi NNW 16.1 mph 25.3 mph N/A   Unknown
11:55 AM 53.6 °F - 48.2 °F 82% 29.72 in 10.0 mi North 17.3 mph 25.3 mph N/A   Unknown
12:15 PM 53.6 °F - 48.2 °F 82% 29.73 in 10.0 mi NNW 16.1 mph 25.3 mph N/A   Unknown
12:35 PM 53.6 °F - 48.2 °F 82% 29.73 in 10.0 mi NNW 18.4 mph - N/A   Unknown
12:55 PM 57.2 °F - 50.0 °F 77% 29.73 in 10.0 mi North 17.3 mph 23.0 mph N/A   Unknown
1:15 PM 57.2 °F - 48.2 °F 72% 29.73 in 10.0 mi North 17.3 mph 27.6 mph N/A   Unknown
1:35 PM 57.2 °F - 48.2 °F 72% 29.73 in 10.0 mi North 17.3 mph 25.3 mph N/A   Unknown
1:55 PM 59.0 °F - 48.2 °F 67% 29.74 in 10.0 mi North 18.4 mph 24.2 mph N/A   Unknown
2:15 PM 59.0 °F - 46.4 °F 63% 29.75 in 10.0 mi North 19.6 mph 26.5 mph N/A   Unknown
2:35 PM 60.8 °F - 46.4 °F 59% 29.75 in 10.0 mi NNW 15.0 mph 23.0 mph N/A   Unknown
2:55 PM 60.8 °F - 46.4 °F 59% 29.74 in 10.0 mi North 12.7 mph 25.3 mph N/A   Unknown
3:15 PM 60.8 °F - 44.6 °F 55% 29.74 in 10.0 mi NNW 15.0 mph 24.2 mph N/A   Unknown
3:35 PM 60.8 °F - 44.6 °F 55% 29.74 in 10.0 mi North 13.8 mph 21.9 mph N/A   Unknown
3:55 PM 62.6 °F - 44.6 °F 52% 29.73 in 10.0 mi North 10.4 mph 19.6 mph N/A   Unknown
4:15 PM 62.6 °F - 44.6 °F 52% 29.72 in 10.0 mi NNE 12.7 mph 18.4 mph N/A   Unknown
4:35 PM 62.6 °F - 42.8 °F 48% 29.72 in 10.0 mi North 12.7 mph 19.6 mph N/A   Unknown
4:55 PM 62.6 °F - 42.8 °F 48% 29.71 in 10.0 mi North 12.7 mph - N/A   Unknown
5:15 PM 62.6 °F - 42.8 °F 48% 29.71 in 10.0 mi North 10.4 mph 16.1 mph N/A   Unknown
5:35 PM 62.6 °F - 42.8 °F 48% 29.71 in 10.0 mi North 6.9 mph 15.0 mph N/A   Unknown
5:55 PM 62.6 °F - 42.8 °F 48% 29.71 in 10.0 mi NE 9.2 mph - N/A   Unknown
6:15 PM 62.6 °F - 42.8 °F 48% 29.72 in 10.0 mi North 8.1 mph - N/A   Unknown
6:35 PM 62.6 °F - 41.0 °F 45% 29.72 in 10.0 mi NNE 8.1 mph - N/A   Unknown
6:55 PM 62.6 °F - 41.0 °F 45% 29.72 in 10.0 mi North 5.8 mph - N/A   Unknown
7:15 PM 60.8 °F - 41.0 °F 48% 29.72 in 10.0 mi Calm Calm - N/A   Unknown
7:35 PM 60.8 °F - 42.8 °F 52% 29.73 in 10.0 mi Calm Calm - N/A   Unknown
7:55 PM 59.0 °F - 42.8 °F 55% 29.73 in 10.0 mi Calm Calm - N/A   Unknown
8:15 PM 59.0 °F - 42.8 °F 55% 29.74 in 10.0 mi Calm Calm - N/A   Unknown
8:35 PM 57.2 °F - 42.8 °F 59% 29.75 in 10.0 mi SE 3.5 mph - N/A   Unknown
8:55 PM 53.6 °F - 42.8 °F 67% 29.75 in 10.0 mi Calm Calm - N/A   Unknown
9:15 PM 51.8 °F - 42.8 °F 71% 29.76 in - Calm Calm - N/A   Unknown
9:35 PM 51.8 °F - 42.8 °F 71% 29.77 in 10.0 mi South 6.9 mph - N/A   Unknown
9:55 PM 53.6 °F - 42.8 °F 67% 29.78 in 10.0 mi WSW 4.6 mph - N/A   Unknown
10:15 PM 50.0 °F - 42.8 °F 76% 29.78 in 10.0 mi Calm Calm - N/A   Unknown
10:35 PM 50.0 °F - 42.8 °F 76% 29.79 in 10.0 mi Calm Calm - N/A   Unknown
10:55 PM 46.4 °F - 41.0 °F 81% 29.79 in 10.0 mi Calm Calm - N/A   Unknown
11:15 PM 44.6 °F - 41.0 °F 87% 29.78 in 10.0 mi Calm Calm - N/A   Unknown
11:35 PM 44.6 °F - 41.0 °F 87% 29.78 in 10.0 mi Calm Calm - N/A   Unknown